Vorticity
8 7 5 7 9 9 7 8 8 11 9 -3 6 8 10 10 8 9 8 11 12 8 14 11 10 9 8 5 6 6 5 6 3 5 6 7 3 7 8 4 6 11 0 -2 -3
6 9 12 9 10 23 10 7 11 9 14 8 -11 2 9 11 9 7 11 10 10 10 8 14 11 10 8 7 5 5 4 1 4 5 -2 10 -1 2 2 -2 11 10 4 4 7
12 15 18 24 10 4 37 24 6 11 14 13 14 26 7 9 12 11 10 10 10 9 11 9 11 10 10 10 6 2 2 6 1 4 -0 8 -6 17 5 3 5 6 12 6 -0
26 22 14 18 -0 7 4 14 32 11 16 17 8 -17 20 11 8 31 12 11 11 12 10 8 7 9 11 8 8 4 6 6 10 0 7 18 -1 11 6 5 1 -2 9 1 6
13 7 13 14 19 29 -1 7 10 28 18 19 14 -29 15 6 7 -5 33 17 11 10 10 9 8 7 11 11 8 8 5 9 6 6 10 6 -2 8 14 5 8 -3 4 5 4
7 10 15 17 13 12 25 20 5 8 30 26 18 7 -1 9 18 4 3 20 12 12 11 9 7 8 18 6 10 23 7 2 10 9 7 5 8 12 5 12 -2 5 2 6 3
13 13 13 15 12 15 16 26 16 12 39 26 30 21 12 28 20 13 2 15 15 12 10 14 13 8 -3 17 13 -7 13 29 3 6 10 10 8 4 4 10 11 1 4 1 5
8 11 16 8 15 18 15 14 9 13 16 41 13 43 -40 -13 7 14 5 14 11 8 8 14 12 10 11 2 29 15 9 -2 28 16 11 9 10 4 13 12 12 18 -1 -2 3
8 11 14 14 9 8 16 16 12 17 14 37 21 -16 18 1 12 12 4 -6 18 5 4 8 7 5 -1 6 12 15 21 13 7 11 5 0 13 15 23 21 19 18 24 8 -1
12 8 13 9 7 7 3 13 5 19 19 29 22 -7 -6 20 9 2 15 5 -4 20 4 6 1 11 5 -0 0 10 6 6 -1 9 -5 3 18 17 8 3 2 11 14 14 13
16 12 7 2 9 4 3 -3 8 20 16 26 48 -16 39 28 22 11 17 9 3 18 4 -3 7 13 3 2 5 8 5 13 11 19 11 9 -5 9 8 6 6 9 14 15 20
19 13 8 13 4 -5 8 4 34 6 33 30 31 -44 38 -14 11 8 6 12 5 4 11 8 12 17 -4 6 1 -2 1 6 2 5 8 4 13 13 8 9 11 11 13 9 10
10 12 9 -0 -1 13 20 8 19 9 31 13 39 6 27 -4 23 7 3 10 7 4 15 -14 35 39 9 13 17 7 4 10 5 -1 1 10 33 24 21 22 21 30 33 40 27
9 8 -0 5 1 15 8 31 12 18 21 35 31 4 22 12 25 16 -1 -2 -4 19 12 9 2 15 7 11 6 4 11 3 4 14 11 -6 -6 -9 14 26 21 7 -3 -9 11
30 -5 5 7 14 17 35 14 18 -6 -1 6 10 30 18 -23 50 14 7 2 20 8 -22 -8 -1 16 -0 3 5 5 -2 3 8 9 11 26 23 24 -6 4 14 11 17 8 7
35 33 29 14 22 17 21 31 0 -3 29 11 11 20 -6 23 20 6 4 12 13 26 11 12 16 3 7 9 1 2 5 5 -1 8 25 28 6 10 22 0 -4 -2 5 9 9
29 25 34 17 9 20 12 14 -4 11 34 26 12 11 4 28 13 -21 3 15 -3 -6 9 12 12 0 15 14 19 18 18 11 13 12 1 -11 17 -2 13 -11 -2 2 5 8 7
17 15 24 25 41 17 9 3 10 33 -18 31 11 12 4 1 28 -4 5 1 14 2 -6 -5 17 7 21 10 -14 4 -1 1 10 6 0 4 14 24 10 -5 -6 5 12 18 13
9 22 19 13 -4 4 9 -6 -2 8 32 31 9 7 11 -10 23 7 3 7 2 -8 -34 5 -1 32 3 18 12 29 9 7 -6 12 10 9 15 15 13 23 9 12 6 1 -1
16 14 14 0 6 6 25 -1 13 58 38 -18 -11 11 18 -2 11 3 -7 21 7 -10 -10 27 5 23 8 14 12 -1 32 13 11 6 9 13 17 0 -6 -4 7 7 8 8 2
7 8 6 -11 2 18 16 38 35 36 -10 -14 11 21 6 5 20 7 -1 50 -2 2 7 15 4 24 4 12 1 3 4 2 3 2 8 7 18 6 -7 -1 -5 7 14 12 15
-4 2 8 4 24 15 13 21 8 8 -4 -7 34 13 1 7 23 -3 13 -5 9 3 9 -4 8 4 -6 5 16 19 -1 1 -5 21 7 1 15 23 -9 -13 7 14 10 9 12
11 10 13 22 -4 -4 6 14 19 -10 4 3 31 -4 5 -2 30 -11 13 -12 53 8 -5 11 13 5 27 9 9 16 9 -3 -5 -20 15 -3 11 -11 -28 18 24 5 8 17 13
6 5 13 27 18 21 8 13 12 21 14 7 16 13 14 -2 12 12 20 -0 32 25 4 6 1 -4 8 11 26 13 12 18 3 7 5 -37 -20 10 15 10 6 5 4 15 16
7 9 20 9 1 11 16 11 19 10 10 24 22 21 9 -9 17 19 11 25 -3 16 8 -1 12 15 4 -5 -2 8 11 18 18 2 -12 -21 -14 9 17 7 9 10 2 17 13
5 2 17 1 5 3 5 8 8 19 27 28 14 12 5 6 -4 29 4 19 -20 9 4 2 -5 8 13 21 18 10 -0 -3 1 6 2 15 2 16 4 14 7 17 15 18 13
15 7 15 -0 8 6 4 7 10 8 7 -11 3 3 14 4 30 13 7 16 9 21 8 -8 17 13 20 -3 8 26 52 23 23 15 7 9 11 3 9 13 5 7 20 15 14
Height
3061 3057 3053 3048 3046 3044 3043 3042 3043 3043 3046 3050 3050 3051 3052 3053 3055 3057 3059 3070 3071 3075 3079 3084 3087 3091 3094 3098 3101 3106 3107 3105 3111 3114 3118 3121 3124 3125 3127 3129 3130 3132 3134 3136 3137
3051 3046 3041 3039 3035 3032 3030 3030 3032 3034 3036 3040 3044 3046 3046 3047 3049 3050 3061 3061 3064 3068 3073 3078 3082 3085 3088 3092 3096 3098 3097 3101 3110 3112 3114 3117 3118 3121 3124 3126 3127 3129 3132 3132 3133
3039 3033 3029 3027 3024 3022 3020 3020 3021 3024 3028 3032 3037 3041 3041 3042 3043 3047 3051 3055 3059 3063 3068 3073 3077 3080 3083 3088 3089 3091 3091 3100 3105 3109 3110 3112 3114 3116 3119 3123 3125 3127 3128 3130 3129
3028 3024 3021 3017 3016 3014 3011 3010 3009 3012 3018 3022 3030 3035 3033 3036 3040 3041 3045 3050 3054 3059 3062 3066 3070 3074 3078 3081 3086 3088 3090 3097 3101 3105 3106 3107 3109 3110 3113 3120 3121 3123 3124 3126 3126
3021 3017 3014 3011 3008 3005 3003 3004 3002 3003 3007 3013 3022 3027 3024 3028 3034 3038 3040 3045 3049 3054 3057 3062 3066 3070 3074 3078 3083 3083 3087 3092 3097 3100 3101 3103 3103 3106 3107 3114 3114 3117 3119 3121 3123
3014 3011 3007 3004 3001 2999 2996 2997 2997 2996 2998 3004 3012 3019 3020 3023 3032 3035 3038 3041 3045 3049 3054 3058 3062 3069 3073 3076 3079 3081 3085 3089 3093 3096 3097 3098 3098 3100 3102 3108 3111 3112 3113 3116 3117
3008 3005 3001 2998 2996 2993 2991 2990 2990 2990 2991 2996 3005 3012 3013 3019 3025 3030 3034 3038 3042 3047 3051 3056 3062 3066 3070 3074 3076 3080 3083 3086 3088 3092 3093 3095 3090 3088 3097 3104 3106 3107 3108 3110 3112
3004 3000 2996 2994 2991 2989 2987 2986 2986 2984 2986 2989 2998 3003 3005 3014 3018 3026 3031 3035 3040 3046 3052 3056 3060 3065 3070 3072 3073 3077 3081 3083 3084 3088 3089 3093 3076 3087 3092 3096 3097 3101 3102 3104 3106
2999 2996 2992 2990 2988 2986 2984 2983 2982 2980 2981 2984 2992 2999 3003 3011 3015 3022 3028 3034 3039 3044 3049 3053 3059 3063 3067 3069 3072 3074 3076 3079 3083 3085 3086 3085 3076 3083 3088 3088 3089 3093 3096 3097 3099
2995 2991 2989 2987 2985 2984 2982 2980 2978 2978 2978 2980 2987 2997 3001 3007 3013 3020 3027 3032 3037 3042 3046 3051 3056 3058 3062 3065 3066 3071 3074 3076 3078 3081 3080 3079 3074 3079 3082 3082 3082 3084 3086 3088 3088
2991 2988 2985 2984 2983 2981 2979 2977 2977 2976 2975 2978 2985 2991 2996 3005 3011 3018 3024 3030 3035 3040 3044 3047 3052 3052 3057 3064 3068 3071 3073 3073 3076 3077 3075 3074 3071 3073 3077 3075 3076 3078 3080 3081 3081
2988 2986 2983 2981 2980 2979 2976 2973 2971 2973 2972 2976 2983 2992 2996 3002 3008 3016 3022 3029 3033 3037 3042 3047 3048 3051 3056 3062 3066 3069 3070 3071 3073 3073 3073 3070 3065 3069 3070 3069 3071 3072 3073 3073 3073
2985 2983 2980 2979 2977 2976 2973 2972 2970 2970 2972 2979 2984 2990 2995 3002 3005 3012 3020 3025 3032 3038 3040 3044 3049 3051 3056 3060 3062 3065 3067 3070 3072 3071 3069 3066 3059 3062 3065 3064 3064 3065 3065 3066 3066
2981 2979 2976 2975 2974 2971 2969 2968 2969 2971 2975 2980 2985 2988 2993 2999 3007 3015 3022 3029 3032 3034 3040 3046 3048 3050 3054 3058 3061 3063 3066 3068 3069 3070 3069 3068 3060 3057 3059 3059 3058 3061 3062 3063 3063
2974 2972 2970 2969 2969 2968 2967 2966 2969 2973 2980 2985 2985 2989 2993 3001 3006 3015 3021 3027 3030 3034 3040 3044 3047 3051 3053 3056 3059 3063 3065 3066 3066 3067 3066 3065 3067 3054 3054 3055 3057 3058 3059 3059 3058
2969 2964 2965 2965 2963 2967 2966 2967 2972 2975 2977 2981 2984 2984 2994 3000 3008 3014 3022 3026 3032 3037 3043 3045 3047 3051 3052 3056 3059 3061 3064 3065 3065 3066 3065 3061 3063 3054 3052 3053 3054 3055 3056 3055 3055
2970 2967 2965 2965 2965 2966 2969 2972 2974 2974 2979 2981 2980 2988 2995 3002 3009 3015 3019 3026 3030 3035 3039 3043 3046 3049 3052 3055 3058 3060 3063 3064 3067 3067 3064 3061 3062 3052 3052 3052 3052 3053 3053 3052 3051
2976 2974 2969 2969 2969 2972 2974 2977 2974 2974 2976 2980 2985 2993 2999 3006 3013 3017 3022 3027 3031 3034 3039 3042 3047 3048 3050 3054 3056 3057 3062 3061 3063 3067 3063 3059 3055 3050 3050 3050 3050 3049 3049 3049 3047
2982 2981 2978 2978 2978 2980 2981 2978 2978 2977 2978 2984 2989 2997 3002 3008 3011 3019 3026 3029 3032 3035 3038 3040 3044 3046 3049 3052 3056 3057 3060 3061 3061 3063 3064 3054 3051 3049 3048 3049 3049 3048 3046 3044 3042
2990 2987 2985 2985 2984 2985 2984 2982 2981 2980 2983 2990 2993 3000 3005 3010 3015 3020 3026 3030 3032 3035 3037 3039 3043 3046 3050 3051 3053 3055 3057 3061 3060 3065 3064 3053 3049 3045 3046 3047 3046 3045 3041 3039 3036
2996 2993 2992 2991 2991 2987 2984 2981 2983 2984 2990 2995 2997 3001 3007 3011 3016 3021 3026 3029 3032 3035 3037 3039 3041 3048 3049 3049 3050 3052 3054 3056 3057 3058 3060 3062 3046 3045 3045 3045 3043 3039 3034 3031 3026
3003 3001 2998 2995 2995 2991 2988 2990 2993 2996 2998 3000 3003 3006 3009 3014 3018 3023 3025 3028 3031 3035 3038 3040 3042 3045 3048 3048 3049 3050 3051 3053 3054 3057 3058 3061 3046 3041 3043 3042 3037 3032 3028 3023 3018
3007 3003 3001 2998 2997 2996 2996 2996 2998 3000 3002 3004 3006 3011 3014 3017 3020 3023 3025 3028 3029 3033 3037 3039 3041 3043 3046 3049 3046 3045 3047 3050 3054 3054 3055 3058 3042 3040 3039 3036 3032 3026 3021 3016 3011
3011 3008 3005 3003 3002 2999 3000 3001 3002 3004 3005 3007 3009 3013 3016 3018 3019 3021 3024 3027 3028 3033 3037 3039 3040 3041 3042 3042 3041 3042 3044 3047 3050 3051 3049 3041 3037 3037 3035 3030 3025 3021 3016 3009 3003
3013 3011 3008 3008 3005 3005 3003 3005 3005 3005 3006 3008 3010 3013 3016 3018 3020 3022 3024 3027 3030 3033 3036 3039 3039 3040 3041 3041 3041 3041 3041 3042 3043 3045 3044 3038 3037 3035 3032 3027 3023 3017 3012 3005 2999
3015 3013 3012 3010 3009 3008 3008 3008 3009 3008 3008 3011 3013 3016 3018 3020 3021 3021 3024 3027 3029 3032 3035 3037 3038 3038 3038 3037 3037 3037 3039 3039 3040 3041 3039 3037 3033 3032 3028 3024 3020 3013 3007 2999 2994
3014 3013 3011 3012 3011 3011 3012 3013 3013 3013 3014 3015 3017 3018 3019 3021 3021 3023 3026 3028 3029 3031 3034 3037 3038 3038 3036 3036 3036 3035 3030 3032 3035 3036 3037 3035 3032 3029 3025 3021 3015 3009 3003 2996 2990